"read_dt","SO2 (ppb)","flags","PMT voltage (V)","lamp voltage (V)","lamp intensity (Hz)","internal temp (C)","react chamber temp (C)","sample flow (l/min)","pres (mmHg)","SO2 bkg (ppb)","SO2 coefficient"
2014-09-05 00:00:00,1831E-3,5C000000,-0724,0827,12142,026.2,045.4,0.476,725.9,01.19,0.508
2014-09-05 00:01:00,1857E-3,5C000000,-0724,0827,12422,026.2,045.4,0.476,725.7,01.19,0.508
2014-09-05 00:02:00,1753E-3,5C000000,-0724,0827,12194,026.2,045.4,0.476,725.8,01.19,0.508
2014-09-05 00:03:00,1804E-3,5C000000,-0724,0827,12217,026.2,045.4,0.476,725.8,01.19,0.508
2014-09-05 00:04:00,1782E-3,5C000000,-0724,0826,12254,026.2,045.4,0.476,725.8,01.19,0.508
2014-09-05 00:05:00,1697E-3,5C000000,-0724,0827,12244,026.2,045.4,0.476,725.8,01.19,0.508
2014-09-05 00:06:00,1759E-3,5C000000,-0724,0827,12114,026.2,045.4,0.477,725.9,01.19,0.508
2014-09-05 00:07:00,1799E-3,5C000000,-0724,0827,12256,026.2,045.4,0.476,725.9,01.19,0.508
2014-09-05 00:08:00,1972E-3,5C000000,-0724,0826,12194,026.2,045.4,0.476,725.9,01.19,0.508
2014-09-05 00:09:00,1788E-3,5C000000,-0724,0826,12209,026.2,045.4,0.476,725.8,01.19,0.508
2014-09-05 00:10:00,1718E-3,5C000000,-0724,0827,12326,026.2,045.4,0.476,726.0,01.19,0.508
2014-09-05 00:11:00,1907E-3,5C000000,-0724,0827,12328,026.2,045.4,0.476,725.9,01.19,0.508
2014-09-05 00:12:00,1787E-3,5C000000,-0724,0827,12192,026.2,045.4,0.476,725.9,01.19,0.508
2014-09-05 00:13:00,1742E-3,5C000000,-0724,0826,12111,026.2,045.4,0.476,725.9,01.19,0.508
2014-09-05 00:14:00,1777E-3,5C000000,-0724,0827,12277,026.2,045.4,0.477,725.9,01.19,0.508
2014-09-05 00:15:00,1876E-3,5C000000,-0724,0827,12449,026.2,045.4,0.476,725.9,01.19,0.508
2014-09-05 00:16:00,1687E-3,5C000000,-0724,0826,12074,026.2,045.4,0.476,726.0,01.19,0.508
2014-09-05 00:17:00,1765E-3,5C000000,-0724,0827,12409,026.2,045.5,0.476,725.8,01.19,0.508
2014-09-05 00:18:00,1791E-3,5C000000,-0724,0826,12293,026.2,045.4,0.476,725.9,01.19,0.508
2014-09-05 00:19:00,1821E-3,5C000000,-0724,0826,12209,026.2,045.4,0.477,726.0,01.19,0.508
2014-09-05 00:20:00,1800E-3,5C000000,-0724,0826,12339,026.2,045.5,0.476,725.9,01.19,0.508
2014-09-05 00:21:00,1853E-3,5C000000,-0724,0826,12193,026.2,045.4,0.476,726.0,01.19,0.508
2014-09-05 00:22:00,1835E-3,5C000000,-0724,0828,12167,026.3,045.4,0.476,725.9,01.19,0.508
2014-09-05 00:23:00,1842E-3,5C000000,-0724,0827,12292,026.3,045.4,0.476,725.9,01.19,0.508
2014-09-05 00:24:00,1684E-3,5C000000,-0724,0827,12111,026.3,045.4,0.476,726.0,01.19,0.508
2014-09-05 00:25:00,1680E-3,5C000000,-0724,0827,12249,026.2,045.4,0.476,725.9,01.19,0.508
2014-09-05 00:26:00,1889E-3,5C000000,-0724,0827,12240,026.3,045.4,0.476,725.9,01.19,0.508
2014-09-05 00:27:00,1758E-3,5C000000,-0724,0827,12328,026.2,045.4,0.476,725.9,01.19,0.508
2014-09-05 00:28:00,1818E-3,5C000000,-0724,0827,12273,026.3,045.5,0.476,725.9,01.19,0.508
2014-09-05 00:29:00,1746E-3,5C000000,-0724,0827,12269,026.3,045.4,0.476,725.8,01.19,0.508
2014-09-05 00:30:00,1797E-3,5C000000,-0724,0827,12292,026.3,045.4,0.476,725.9,01.19,0.508
2014-09-05 00:31:00,1650E-3,5C000000,-0724,0828,12022,026.3,045.4,0.476,725.9,01.19,0.508
2014-09-05 00:32:00,1859E-3,5C000000,-0724,0826,11997,026.3,045.4,0.476,725.8,01.19,0.508
2014-09-05 00:33:00,1768E-3,5C000000,-0724,0827,11995,026.3,045.4,0.476,726.0,01.19,0.508
2014-09-05 00:34:00,1841E-3,5C000000,-0724,0828,12177,026.2,045.4,0.476,725.9,01.19,0.508
2014-09-05 00:35:00,1837E-3,5C000000,-0724,0827,12210,026.3,045.4,0.476,725.8,01.19,0.508
2014-09-05 00:36:00,1733E-3,5C000000,-0724,0827,12311,026.3,045.4,0.476,725.9,01.19,0.508
2014-09-05 00:37:00,1776E-3,5C000000,-0724,0826,12000,026.3,045.4,0.477,726.0,01.19,0.508
2014-09-05 00:38:00,1689E-3,5C000000,-0724,0828,12205,026.3,045.4,0.476,725.9,01.19,0.508
2014-09-05 00:39:00,1884E-3,5C000000,-0724,0826,12156,026.3,045.4,0.476,725.8,01.19,0.508
2014-09-05 00:40:00,1723E-3,5C000000,-0724,0828,12303,026.3,045.4,0.476,725.9,01.19,0.508
2014-09-05 00:41:00,1726E-3,5C000000,-0724,0827,12201,026.3,045.4,0.476,725.9,01.19,0.508
2014-09-05 00:42:00,1814E-3,5C000000,-0724,0828,12216,026.3,045.4,0.477,726.0,01.19,0.508
2014-09-05 00:43:00,1670E-3,5C000000,-0724,0826,12257,026.3,045.4,0.476,726.0,01.19,0.508
2014-09-05 00:44:00,1686E-3,5C000000,-0724,0826,12222,026.3,045.4,0.476,726.0,01.19,0.508
2014-09-05 00:45:00,1825E-3,5C000000,-0724,0827,12184,026.3,045.4,0.476,725.9,01.19,0.508
2014-09-05 00:46:00,1798E-3,5C000000,-0724,0827,12239,026.3,045.4,0.476,726.0,01.19,0.508
2014-09-05 00:47:00,1749E-3,5C000000,-0724,0827,12293,026.3,045.4,0.477,726.0,01.19,0.508
2014-09-05 00:48:00,1794E-3,5C000000,-0724,0826,12117,026.3,045.4,0.476,726.0,01.19,0.508
2014-09-05 00:49:00,1802E-3,5C000000,-0724,0826,12258,026.3,045.4,0.476,725.9,01.19,0.508
2014-09-05 00:50:00,1761E-3,5C000000,-0724,0826,12166,026.3,045.4,0.476,725.9,01.19,0.508
2014-09-05 00:51:00,1852E-3,5C000000,-0724,0827,12212,026.3,045.4,0.476,726.0,01.19,0.508
2014-09-05 00:52:00,1867E-3,5C000000,-0724,0827,12254,026.3,045.4,0.477,726.0,01.19,0.508
2014-09-05 00:53:00,1795E-3,5C000000,-0724,0827,12246,026.3,045.4,0.476,726.0,01.19,0.508
2014-09-05 00:54:00,1943E-3,5C000000,-0724,0827,12195,026.3,045.4,0.476,725.9,01.19,0.508
2014-09-05 00:55:00,1912E-3,5C000000,-0724,0826,12309,026.3,045.4,0.476,725.9,01.19,0.508
2014-09-05 00:56:00,1880E-3,5C000000,-0724,0827,12195,026.3,045.4,0.476,726.0,01.19,0.508
2014-09-05 00:57:00,1838E-3,5C000000,-0724,0826,12196,026.3,045.4,0.476,725.9,01.19,0.508
2014-09-05 00:58:00,1826E-3,5C000000,-0724,0827,12409,026.3,045.4,0.476,725.7,01.19,0.508
2014-09-05 00:59:00,1839E-3,5C000000,-0724,0827,12214,026.3,045.4,0.476,725.8,01.19,0.508
2014-09-05 01:00:00,1768E-3,5C000000,-0724,0827,12317,026.3,045.4,0.476,725.8,01.19,0.508
2014-09-05 01:01:00,1746E-3,5C000000,-0724,0827,12267,026.3,045.4,0.476,725.7,01.19,0.508
2014-09-05 01:02:00,1982E-3,5C000000,-0724,0826,12362,026.3,045.4,0.476,725.7,01.19,0.508
2014-09-05 01:03:00,1618E-3,5C000000,-0724,0827,12239,026.3,045.4,0.476,725.8,01.19,0.508
2014-09-05 01:04:00,1833E-3,5C000000,-0724,0826,12179,026.3,045.4,0.476,725.8,01.19,0.508
2014-09-05 01:05:00,1785E-3,5C000000,-0724,0826,12417,026.3,045.4,0.476,725.9,01.19,0.508
2014-09-05 01:06:00,1784E-3,5C000000,-0724,0827,12246,026.3,045.4,0.476,725.9,01.19,0.508
2014-09-05 01:07:00,1747E-3,5C000000,-0724,0827,12027,026.3,045.4,0.476,725.9,01.19,0.508
2014-09-05 01:08:00,1818E-3,5C000000,-0724,0826,12210,026.3,045.4,0.476,725.8,01.19,0.508
2014-09-05 01:09:00,1774E-3,5C000000,-0724,0827,12115,026.3,045.4,0.476,725.9,01.19,0.508
2014-09-05 01:10:00,1797E-3,5C000000,-0724,0828,12399,026.3,045.4,0.476,725.8,01.19,0.508
2014-09-05 01:11:00,1768E-3,5C000000,-0724,0827,12150,026.3,045.4,0.476,725.7,01.19,0.508
2014-09-05 01:12:00,1628E-3,5C000000,-0724,0826,12242,026.3,045.4,0.476,725.8,01.19,0.508
2014-09-05 01:13:00,1758E-3,5C000000,-0724,0827,12214,026.3,045.4,0.476,725.8,01.19,0.508
2014-09-05 01:14:00,1893E-3,5C000000,-0724,0827,12182,026.3,045.4,0.476,725.8,01.19,0.508
2014-09-05 01:15:00,1743E-3,5C000000,-0724,0827,12183,026.3,045.4,0.476,725.8,01.19,0.508
2014-09-05 01:16:00,1812E-3,5C000000,-0724,0828,12324,026.3,045.4,0.476,725.8,01.19,0.508
2014-09-05 01:17:00,1761E-3,5C000000,-0724,0826,12090,026.3,045.4,0.476,725.7,01.19,0.508
2014-09-05 01:18:00,1787E-3,5C000000,-0724,0826,12267,026.3,045.4,0.476,725.7,01.19,0.508
2014-09-05 01:19:00,1789E-3,5C000000,-0724,0827,12350,026.3,045.4,0.476,725.6,01.19,0.508
2014-09-05 01:20:00,1789E-3,5C000000,-0724,0827,12286,026.4,045.4,0.476,725.7,01.19,0.508
2014-09-05 01:21:00,1650E-3,5C000000,-0724,0827,12371,026.3,045.4,0.476,725.7,01.19,0.508
2014-09-05 01:22:00,1680E-3,5C000000,-0724,0827,12155,026.3,045.4,0.476,725.6,01.19,0.508
2014-09-05 01:23:00,1959E-3,5C000000,-0724,0827,12156,026.3,045.4,0.476,725.8,01.19,0.508
2014-09-05 01:24:00,1880E-3,5C000000,-0724,0827,12278,026.3,045.4,0.476,725.7,01.19,0.508
2014-09-05 01:25:00,1783E-3,5C000000,-0724,0826,12261,026.3,045.4,0.476,725.7,01.19,0.508
2014-09-05 01:26:00,1665E-3,5C000000,-0724,0827,12223,026.3,045.4,0.476,725.6,01.19,0.508
2014-09-05 01:27:00,1742E-3,5C000000,-0724,0827,12389,026.3,045.4,0.476,725.7,01.19,0.508
2014-09-05 01:28:00,1831E-3,5C000000,-0724,0827,12354,026.3,045.4,0.476,725.5,01.19,0.508
2014-09-05 01:29:00,1729E-3,5C000000,-0724,0826,12343,026.4,045.4,0.476,725.8,01.19,0.508
2014-09-05 01:30:00,1802E-3,5C000000,-0724,0826,12303,026.4,045.4,0.476,725.5,01.19,0.508
2014-09-05 01:31:00,1735E-3,5C000000,-0724,0826,12175,026.4,045.4,0.476,725.6,01.19,0.508
2014-09-05 01:32:00,1817E-3,5C000000,-0724,0826,12204,026.4,045.4,0.476,725.8,01.19,0.508
2014-09-05 01:33:00,1892E-3,5C000000,-0724,0826,12215,026.4,045.4,0.476,725.7,01.19,0.508
2014-09-05 01:34:00,1753E-3,5C000000,-0724,0826,12426,026.4,045.4,0.476,725.8,01.19,0.508
2014-09-05 01:35:00,1826E-3,5C000000,-0724,0827,12371,026.4,045.4,0.476,725.7,01.19,0.508
2014-09-05 01:36:00,1670E-3,5C000000,-0724,0826,12338,026.4,045.4,0.476,725.4,01.19,0.508
2014-09-05 01:37:00,1730E-3,5C000000,-0724,0826,12412,026.4,045.4,0.476,725.3,01.19,0.508
2014-09-05 01:38:00,1873E-3,5C000000,-0724,0827,11966,026.4,045.4,0.475,725.5,01.19,0.508
2014-09-05 01:39:00,1873E-3,5C000000,-0724,0827,12167,026.4,045.4,0.476,725.4,01.19,0.508
2014-09-05 01:40:00,1874E-3,5C000000,-0724,0827,12349,026.4,045.4,0.476,725.5,01.19,0.508
2014-09-05 01:41:00,1775E-3,5C000000,-0724,0829,12467,026.4,045.4,0.476,725.6,01.19,0.508
2014-09-05 01:42:00,1756E-3,5C000000,-0724,0826,12207,026.4,045.4,0.476,725.5,01.19,0.508
2014-09-05 01:43:00,1712E-3,5C000000,-0724,0827,12141,026.4,045.4,0.475,725.6,01.19,0.508
2014-09-05 01:44:00,1808E-3,5C000000,-0724,0827,12187,026.4,045.4,0.476,725.7,01.19,0.508
2014-09-05 01:45:00,1759E-3,5C000000,-0724,0827,12215,026.4,045.4,0.476,725.5,01.19,0.508
2014-09-05 01:46:00,1738E-3,5C000000,-0724,0827,12207,026.4,045.4,0.476,725.5,01.19,0.508
2014-09-05 01:47:00,1819E-3,5C000000,-0724,0827,12262,026.4,045.4,0.476,725.4,01.19,0.508
2014-09-05 01:48:00,1835E-3,5C000000,-0724,0826,12272,026.4,045.5,0.476,725.7,01.19,0.508
2014-09-05 01:49:00,1697E-3,5C000000,-0724,0828,12130,026.4,045.4,0.476,725.7,01.19,0.508
2014-09-05 01:50:00,1862E-3,5C000000,-0724,0826,11981,026.4,045.4,0.476,725.4,01.19,0.508
2014-09-05 01:51:00,1753E-3,5C000000,-0724,0827,12314,026.4,045.4,0.476,725.8,01.19,0.508
2014-09-05 01:52:00,1777E-3,5C000000,-0724,0827,12308,026.4,045.4,0.476,725.6,01.19,0.508
2014-09-05 01:53:00,1794E-3,5C000000,-0724,0827,12075,026.4,045.4,0.476,725.7,01.19,0.508
2014-09-05 01:54:00,1907E-3,5C000000,-0724,0828,12331,026.4,045.4,0.476,725.8,01.19,0.508
2014-09-05 01:55:00,1795E-3,5C000000,-0724,0827,12296,026.4,045.4,0.476,725.6,01.19,0.508
2014-09-05 01:56:00,1681E-3,5C000000,-0724,0827,12104,026.4,045.5,0.476,725.7,01.19,0.508
2014-09-05 01:57:00,1666E-3,5C000000,-0724,0827,12209,026.5,045.4,0.475,725.6,01.19,0.508
2014-09-05 01:58:00,1818E-3,5C000000,-0724,0828,12255,026.4,045.4,0.476,725.4,01.19,0.508
2014-09-05 01:59:00,1779E-3,5C000000,-0724,0827,12256,026.4,045.4,0.476,725.5,01.19,0.508
2014-09-05 02:00:00,1798E-3,5C000000,-0724,0826,12251,026.4,045.4,0.476,725.6,01.19,0.508
2014-09-05 02:01:00,1827E-3,5C000000,-0724,0828,12249,026.4,045.4,0.476,725.8,01.19,0.508
2014-09-05 02:02:00,1808E-3,5C000000,-0724,0827,12270,026.5,045.4,0.476,725.6,01.19,0.508
2014-09-05 02:03:00,1862E-3,5C000000,-0724,0827,12222,026.5,045.4,0.476,725.5,01.19,0.508
2014-09-05 02:04:00,1687E-3,5C000000,-0724,0827,12432,026.5,045.4,0.475,725.6,01.19,0.508
2014-09-05 02:05:00,1761E-3,5C000000,-0724,0827,12103,026.5,045.4,0.476,725.6,01.19,0.508
2014-09-05 02:06:00,1867E-3,5C000000,-0724,0826,12291,026.5,045.4,0.476,725.8,01.19,0.508
2014-09-05 02:07:00,1802E-3,5C000000,-0724,0827,12277,026.5,045.4,0.476,725.6,01.19,0.508
2014-09-05 02:08:00,1807E-3,5C000000,-0724,0827,12154,026.5,045.4,0.476,725.8,01.19,0.508
2014-09-05 02:09:00,1736E-3,5C000000,-0724,0827,12325,026.5,045.4,0.475,725.7,01.19,0.508
2014-09-05 02:10:00,1892E-3,5C000000,-0724,0826,12199,026.5,045.4,0.476,725.7,01.19,0.508
2014-09-05 02:11:00,1696E-3,5C000000,-0724,0827,12348,026.5,045.4,0.475,725.7,01.19,0.508
2014-09-05 02:12:00,1865E-3,5C000000,-0724,0827,12166,026.5,045.4,0.476,725.7,01.19,0.508
2014-09-05 02:13:00,1749E-3,5C000000,-0724,0827,12203,026.5,045.4,0.475,725.8,01.19,0.508
2014-09-05 02:14:00,1677E-3,5C000000,-0724,0827,12276,026.5,045.4,0.476,725.9,01.19,0.508
2014-09-05 02:15:00,1703E-3,5C000000,-0724,0827,12336,026.6,045.4,0.476,725.9,01.19,0.508
2014-09-05 02:16:00,1726E-3,5C000000,-0724,0828,12231,026.5,045.4,0.476,725.7,01.19,0.508
2014-09-05 02:17:00,1842E-3,5C000000,-0724,0827,12145,026.5,045.4,0.476,725.8,01.19,0.508
2014-09-05 02:18:00,1875E-3,5C000000,-0724,0827,12331,026.5,045.4,0.476,726.0,01.19,0.508
2014-09-05 02:19:00,1784E-3,5C000000,-0724,0826,12182,026.5,045.4,0.476,725.7,01.19,0.508
2014-09-05 02:20:00,1703E-3,5C000000,-0724,0827,12202,026.5,045.4,0.475,725.8,01.19,0.508
2014-09-05 02:21:00,1875E-3,5C000000,-0724,0826,12246,026.6,045.4,0.476,725.9,01.19,0.508
2014-09-05 02:22:00,1928E-3,5C000000,-0724,0827,12082,026.6,045.4,0.475,725.9,01.19,0.508
2014-09-05 02:23:00,1920E-3,5C000000,-0724,0826,12258,026.6,045.4,0.476,725.8,01.19,0.508
2014-09-05 02:24:00,1767E-3,5C000000,-0724,0827,12279,026.6,045.4,0.475,725.8,01.19,0.508
2014-09-05 02:25:00,1772E-3,5C000000,-0724,0827,12319,026.6,045.5,0.476,725.8,01.19,0.508
2014-09-05 02:26:00,1868E-3,5C000000,-0724,0827,12301,026.6,045.4,0.475,725.8,01.19,0.508
2014-09-05 02:27:00,1868E-3,5C000000,-0724,0826,12291,026.6,045.4,0.476,725.8,01.19,0.508
2014-09-05 02:28:00,1697E-3,5C000000,-0724,0827,12294,026.6,045.4,0.475,725.7,01.19,0.508
2014-09-05 02:29:00,1797E-3,5C000000,-0724,0826,12240,026.6,045.4,0.476,725.7,01.19,0.508
2014-09-05 02:30:00,1872E-3,5C000000,-0724,0827,12156,026.6,045.4,0.475,725.4,01.19,0.508
2014-09-05 02:31:00,1811E-3,5C000000,-0724,0827,12156,026.6,045.5,0.476,725.6,01.19,0.508
2014-09-05 02:32:00,1631E-3,5C000000,-0724,0826,12196,026.6,045.4,0.475,725.8,01.19,0.508
2014-09-05 02:33:00,1771E-3,5C000000,-0724,0827,12118,026.6,045.4,0.476,725.8,01.19,0.508
2014-09-05 02:34:00,1801E-3,5C000000,-0724,0827,12036,026.6,045.4,0.475,725.5,01.19,0.508
2014-09-05 02:35:00,1839E-3,5C000000,-0724,0826,12188,026.6,045.4,0.476,725.8,01.19,0.508
2014-09-05 02:36:00,1798E-3,5C000000,-0724,0827,12154,026.7,045.4,0.475,725.5,01.19,0.508
2014-09-05 02:37:00,1825E-3,5C000000,-0724,0827,12156,026.6,045.4,0.476,725.6,01.19,0.508
2014-09-05 02:38:00,1992E-3,5C000000,-0724,0827,12250,026.6,045.4,0.476,725.6,01.19,0.508
2014-09-05 02:39:00,1731E-3,5C000000,-0724,0828,12156,026.6,045.4,0.475,725.6,01.19,0.508
2014-09-05 02:40:00,1868E-3,5C000000,-0724,0827,12208,026.6,045.4,0.476,725.8,01.19,0.508
2014-09-05 02:41:00,1777E-3,5C000000,-0724,0827,12274,026.6,045.4,0.475,725.5,01.19,0.508
2014-09-05 02:42:00,1785E-3,5C000000,-0724,0827,12302,026.6,045.4,0.476,725.5,01.19,0.508
2014-09-05 02:43:00,1765E-3,5C000000,-0724,0827,12022,026.7,045.4,0.475,725.7,01.19,0.508
2014-09-05 02:44:00,1667E-3,5C000000,-0724,0828,12250,026.6,045.4,0.476,725.7,01.19,0.508
2014-09-05 02:45:00,1680E-3,5C000000,-0724,0827,12343,026.6,045.4,0.475,725.7,01.19,0.508
2014-09-05 02:46:00,1672E-3,5C000000,-0724,0826,12289,026.6,045.4,0.476,725.8,01.19,0.508
2014-09-05 02:47:00,1838E-3,5C000000,-0724,0828,12277,026.7,045.4,0.475,725.7,01.19,0.508
2014-09-05 02:48:00,1706E-3,5C000000,-0724,0826,12227,026.7,045.4,0.476,725.5,01.19,0.508
2014-09-05 02:49:00,1734E-3,5C000000,-0724,0827,12341,026.7,045.4,0.475,725.6,01.19,0.508
2014-09-05 02:50:00,1774E-3,5C000000,-0724,0826,12167,026.7,045.4,0.476,725.6,01.19,0.508
2014-09-05 02:51:00,1856E-3,5C000000,-0724,0828,12273,026.7,045.4,0.475,725.7,01.19,0.508
2014-09-05 02:52:00,1784E-3,5C000000,-0724,0827,12230,026.7,045.4,0.476,725.7,01.19,0.508
2014-09-05 02:53:00,1721E-3,5C000000,-0724,0826,12168,026.7,045.4,0.475,725.6,01.19,0.508
2014-09-05 02:54:00,1757E-3,5C000000,-0724,0827,12168,026.7,045.5,0.476,725.8,01.19,0.508
2014-09-05 02:55:00,1902E-3,5C000000,-0724,0827,12366,026.7,045.4,0.475,725.7,01.19,0.508
2014-09-05 02:56:00,1698E-3,5C000000,-0724,0827,12314,026.7,045.4,0.476,725.5,01.19,0.508
2014-09-05 02:57:00,1869E-3,5C000000,-0724,0828,12223,026.7,045.4,0.475,725.5,01.19,0.508
2014-09-05 02:58:00,1756E-3,5C000000,-0724,0827,12207,026.7,045.4,0.476,725.7,01.19,0.508
2014-09-05 02:59:00,1808E-3,5C000000,-0724,0827,12234,026.7,045.4,0.475,725.8,01.19,0.508
2014-09-05 03:00:00,1708E-3,5C000000,-0724,0826,11942,026.7,045.4,0.476,725.7,01.19,0.508
2014-09-05 03:01:00,1718E-3,5C000000,-0724,0827,12103,026.7,045.4,0.475,725.8,01.19,0.508
2014-09-05 03:02:00,1738E-3,5C000000,-0724,0828,12273,026.7,045.4,0.476,725.8,01.19,0.508
2014-09-05 03:03:00,1762E-3,5C000000,-0724,0826,12223,026.7,045.5,0.475,725.8,01.19,0.508
2014-09-05 03:04:00,1848E-3,5C000000,-0724,0827,12301,026.7,045.4,0.476,725.6,01.19,0.508
2014-09-05 03:05:00,1718E-3,5C000000,-0724,0827,12022,026.7,045.4,0.475,725.5,01.19,0.508
2014-09-05 03:06:00,1909E-3,5C000000,-0724,0827,12238,026.7,045.4,0.476,725.8,01.19,0.508
2014-09-05 03:07:00,1721E-3,5C000000,-0724,0826,12168,026.7,045.4,0.475,725.9,01.19,0.508
2014-09-05 03:08:00,1750E-3,5C000000,-0724,0827,11987,026.8,045.4,0.476,725.6,01.19,0.508
2014-09-05 03:09:00,1826E-3,5C000000,-0724,0828,12168,026.8,045.4,0.475,725.5,01.19,0.508
2014-09-05 03:10:00,1800E-3,5C000000,-0724,0826,12206,026.8,045.4,0.476,725.8,01.19,0.508
2014-09-05 03:11:00,1758E-3,5C000000,-0724,0827,12088,026.8,045.5,0.475,725.9,01.19,0.508
2014-09-05 03:12:00,1790E-3,5C000000,-0724,0827,12213,026.8,045.4,0.475,725.7,01.19,0.508
2014-09-05 03:13:00,1825E-3,5C000000,-0724,0827,12333,026.8,045.4,0.475,725.9,01.19,0.508
2014-09-05 03:14:00,1714E-3,5C000000,-0724,0826,12244,026.8,045.4,0.476,725.8,01.19,0.508
2014-09-05 03:15:00,1750E-3,5C000000,-0724,0828,12190,026.8,045.4,0.475,725.7,01.19,0.508
2014-09-05 03:16:00,1775E-3,5C000000,-0724,0827,12187,026.8,045.4,0.475,725.7,01.19,0.508
2014-09-05 03:17:00,1713E-3,5C000000,-0724,0827,12315,026.8,045.5,0.475,725.5,01.19,0.508
2014-09-05 03:18:00,1899E-3,5C000000,-0724,0827,12188,026.8,045.4,0.475,725.8,01.19,0.508
2014-09-05 03:19:00,1821E-3,5C000000,-0724,0827,12192,026.8,045.4,0.475,725.9,01.19,0.508
2014-09-05 03:20:00,1705E-3,5C000000,-0724,0827,12195,026.8,045.4,0.475,725.8,01.19,0.508
2014-09-05 03:21:00,1891E-3,5C000000,-0724,0827,12186,026.8,045.4,0.475,725.8,01.19,0.508
2014-09-05 03:22:00,1746E-3,5C000000,-0724,0827,12178,026.8,045.4,0.475,725.7,01.19,0.508
2014-09-05 03:23:00,1732E-3,5C000000,-0724,0827,12199,026.8,045.4,0.475,725.7,01.19,0.508
2014-09-05 03:24:00,1861E-3,5C000000,-0724,0827,12312,026.8,045.5,0.475,725.7,01.19,0.508
2014-09-05 03:25:00,1814E-3,5C000000,-0724,0827,12195,026.9,045.5,0.475,725.5,01.19,0.508
2014-09-05 03:26:00,1727E-3,5C000000,-0724,0826,12183,026.8,045.4,0.475,725.7,01.19,0.508
2014-09-05 03:27:00,1754E-3,5C000000,-0724,0827,12343,026.9,045.4,0.476,725.8,01.19,0.508
2014-09-05 03:28:00,1913E-3,5C000000,-0724,0826,12280,026.9,045.5,0.475,725.7,01.19,0.508
2014-09-05 03:29:00,1702E-3,5C000000,-0724,0826,12280,026.9,045.4,0.476,725.7,01.19,0.508
2014-09-05 03:30:00,1747E-3,5C000000,-0724,0827,12304,026.9,045.4,0.475,725.6,01.19,0.508
2014-09-05 03:31:00,1699E-3,5C000000,-0724,0826,12245,026.9,045.5,0.475,725.6,01.19,0.508
2014-09-05 03:32:00,1840E-3,5C000000,-0724,0825,12046,026.9,045.4,0.475,725.5,01.19,0.508
2014-09-05 03:33:00,1785E-3,5C000000,-0724,0827,12093,026.9,045.4,0.475,725.7,01.19,0.508
2014-09-05 03:34:00,1794E-3,5C000000,-0724,0827,12258,026.9,045.5,0.475,725.6,01.19,0.508
2014-09-05 03:35:00,1785E-3,5C000000,-0724,0827,12115,026.9,045.4,0.475,725.3,01.19,0.508
2014-09-05 03:36:00,1868E-3,5C000000,-0724,0827,12084,026.9,045.4,0.475,725.6,01.19,0.508
2014-09-05 03:37:00,1553E-3,5C000000,-0724,0828,12240,026.9,045.4,0.475,725.5,01.19,0.508
2014-09-05 03:38:00,1936E-3,5C000000,-0724,0827,12283,026.9,045.4,0.475,725.6,01.19,0.508
2014-09-05 03:39:00,1798E-3,5C000000,-0724,0827,12310,026.9,045.5,0.475,725.5,01.19,0.508
2014-09-05 03:40:00,1814E-3,5C000000,-0724,0826,12271,026.9,045.5,0.475,725.3,01.19,0.508
2014-09-05 03:41:00,1818E-3,5C000000,-0724,0826,12256,026.9,045.4,0.475,725.4,01.19,0.508
2014-09-05 03:42:00,1868E-3,5C000000,-0724,0827,12271,026.9,045.4,0.475,725.2,01.19,0.508
2014-09-05 03:43:00,1830E-3,5C000000,-0724,0827,12152,026.9,045.4,0.475,725.6,01.19,0.508
2014-09-05 03:44:00,1790E-3,5C000000,-0724,0827,12181,026.9,045.5,0.475,725.4,01.19,0.508
2014-09-05 03:45:00,1762E-3,5C000000,-0724,0827,12257,026.9,045.4,0.475,725.7,01.19,0.508
2014-09-05 03:46:00,1719E-3,5C000000,-0724,0826,12286,026.9,045.4,0.475,725.4,01.19,0.508
2014-09-05 03:47:00,1674E-3,5C000000,-0724,0826,11944,026.9,045.4,0.475,725.6,01.19,0.508
2014-09-05 03:48:00,1681E-3,5C000000,-0724,0827,12154,026.9,045.4,0.475,725.7,01.19,0.508
2014-09-05 03:49:00,1800E-3,5C000000,-0724,0827,12179,026.9,045.4,0.475,725.7,01.19,0.508
2014-09-05 03:50:00,1731E-3,5C000000,-0724,0827,12095,027.0,045.5,0.475,725.6,01.19,0.508
2014-09-05 03:51:00,1788E-3,5C000000,-0724,0827,12369,027.0,045.5,0.475,725.7,01.19,0.508
2014-09-05 03:52:00,1861E-3,5C000000,-0724,0826,12359,026.9,045.5,0.475,725.8,01.19,0.508
2014-09-05 03:53:00,1710E-3,5C000000,-0724,0826,12140,026.9,045.4,0.475,725.7,01.19,0.508
2014-09-05 03:54:00,1835E-3,5C000000,-0724,0826,12326,027.0,045.4,0.475,725.6,01.19,0.508
2014-09-05 03:55:00,1701E-3,5C000000,-0724,0827,12277,027.0,045.4,0.475,725.6,01.19,0.508
2014-09-05 03:56:00,1735E-3,5C000000,-0724,0827,12387,027.0,045.4,0.475,725.7,01.19,0.508
2014-09-05 03:57:00,1799E-3,5C000000,-0724,0827,12160,027.0,045.4,0.475,725.7,01.19,0.508
2014-09-05 03:58:00,1825E-3,5C000000,-0724,0827,12150,027.0,045.4,0.475,725.6,01.19,0.508
2014-09-05 03:59:00,1869E-3,5C000000,-0724,0827,12284,027.0,045.4,0.475,725.4,01.19,0.508
2014-09-05 04:00:00,1791E-3,5C000000,-0724,0827,12139,027.0,045.4,0.475,725.6,01.19,0.508
2014-09-05 04:01:00,1892E-3,5C000000,-0724,0827,12184,027.0,045.4,0.475,725.7,01.19,0.508
2014-09-05 04:02:00,1706E-3,5C000000,-0724,0828,12183,027.0,045.4,0.475,725.7,01.19,0.508
2014-09-05 04:03:00,1797E-3,5C000000,-0724,0827,12275,027.0,045.4,0.475,725.4,01.19,0.508
2014-09-05 04:04:00,1792E-3,5C000000,-0724,0827,12104,027.0,045.4,0.475,725.4,01.19,0.508
2014-09-05 04:05:00,1718E-3,5C000000,-0724,0827,12326,027.0,045.4,0.475,725.2,01.19,0.508
2014-09-05 04:06:00,1804E-3,5C000000,-0724,0827,12042,027.0,045.5,0.475,725.6,01.19,0.508
2014-09-05 04:07:00,1819E-3,5C000000,-0724,0826,12326,027.0,045.4,0.475,725.5,01.19,0.508
2014-09-05 04:08:00,1484E-3,5C000000,-0724,0827,12101,027.0,045.4,0.475,725.5,01.19,0.508
2014-09-05 04:09:00,1865E-3,5C000000,-0724,0827,12207,027.0,045.4,0.475,725.7,01.19,0.508
2014-09-05 04:10:00,1853E-3,5C000000,-0724,0826,12391,027.0,045.5,0.475,725.4,01.19,0.508
2014-09-05 04:11:00,1680E-3,5C000000,-0724,0827,12135,027.0,045.5,0.475,725.5,01.19,0.508
2014-09-05 04:12:00,1745E-3,5C000000,-0724,0828,12180,027.0,045.4,0.475,725.6,01.19,0.508
2014-09-05 04:13:00,1825E-3,5C000000,-0724,0827,12110,027.0,045.5,0.475,725.7,01.19,0.508
2014-09-05 04:14:00,1735E-3,5C000000,-0724,0827,12337,027.0,045.5,0.475,725.4,01.19,0.508
2014-09-05 04:15:00,1803E-3,5C000000,-0724,0827,12238,027.0,045.5,0.475,725.6,01.19,0.508
2014-09-05 04:16:00,1829E-3,5C000000,-0724,0827,12241,027.0,045.5,0.475,725.7,01.19,0.508
2014-09-05 04:17:00,1775E-3,5C000000,-0724,0826,12154,027.0,045.5,0.475,725.6,01.19,0.508
2014-09-05 04:18:00,1718E-3,5C000000,-0724,0826,12131,027.0,045.5,0.475,725.5,01.19,0.508
2014-09-05 04:19:00,1979E-3,5C000000,-0724,0828,12279,027.0,045.5,0.475,725.5,01.19,0.508
2014-09-05 04:20:00,1865E-3,5C000000,-0724,0827,12259,027.0,045.4,0.475,725.5,01.19,0.508